Time,TemperatureF,DewpointF,PressureIn,WindDirection,WindDirectionDegrees,WindSpeedMPH,WindSpeedGustMPH,Humidity,HourlyPrecipIn,Conditions,Clouds,dailyrainin,SoftwareType,DateUTC
2013-05-05 00:02:00,44.0,44.0,29.97,WNW,291,0.0,0.0,99,0.00,,,0.89,,2013-05-05 05:02:00,
2013-05-05 00:12:00,44.0,44.0,29.97,WNW,291,0.0,0.0,99,0.00,,,0.89,,2013-05-05 05:12:00,
2013-05-05 00:21:00,44.0,44.0,29.97,WNW,291,0.0,0.0,99,0.00,,,0.89,,2013-05-05 05:21:00,
2013-05-05 00:31:00,44.0,44.0,29.97,WNW,291,0.0,1.0,100,0.00,,,0.76,,2013-05-05 05:31:00,
2013-05-05 00:42:00,44.0,44.0,29.97,WNW,291,0.0,1.0,100,0.00,,,0.76,,2013-05-05 05:42:00,
2013-05-05 00:52:00,44.0,44.0,29.96,WNW,291,1.0,1.0,100,0.00,,,0.76,,2013-05-05 05:52:00,
2013-05-05 01:01:00,45.0,45.0,29.96,WNW,291,0.0,0.0,100,0.00,,,0.76,,2013-05-05 06:01:00,
2013-05-05 01:12:00,45.0,45.0,29.96,WNW,291,0.0,0.0,100,0.00,,,0.76,,2013-05-05 06:12:00,
2013-05-05 01:21:00,45.0,45.0,29.96,WNW,288,2.0,3.0,100,0.00,,,0.76,,2013-05-05 06:21:00,
2013-05-05 01:32:00,45.0,45.0,29.96,WNW,288,0.0,1.0,100,0.00,,,0.72,,2013-05-05 06:32:00,
2013-05-05 01:42:00,45.0,45.0,29.96,WNW,288,0.0,1.0,100,0.00,,,0.72,,2013-05-05 06:42:00,
2013-05-05 01:52:00,45.0,45.0,29.96,WNW,288,0.0,2.0,100,0.00,,,0.72,,2013-05-05 06:52:00,
2013-05-05 02:01:00,45.0,45.0,29.94,WNW,288,0.0,2.0,100,0.00,,,0.72,,2013-05-05 07:01:00,
2013-05-05 02:11:00,45.0,45.0,29.94,WNW,288,0.0,2.0,100,0.00,,,0.72,,2013-05-05 07:11:00,
2013-05-05 02:21:00,45.0,45.0,29.95,WNW,288,0.0,0.0,100,0.00,,,0.72,,2013-05-05 07:21:00,
2013-05-05 02:32:00,45.0,45.0,29.94,WNW,288,0.0,0.0,100,0.00,,,0.62,,2013-05-05 07:32:00,
2013-05-05 02:42:00,45.0,45.0,29.94,WNW,288,0.0,0.0,100,0.00,,,0.62,,2013-05-05 07:42:00,
2013-05-05 02:52:00,45.0,45.0,29.94,WNW,288,0.0,0.0,100,0.00,,,0.62,,2013-05-05 07:52:00,
2013-05-05 03:02:00,44.0,44.0,29.94,WNW,288,0.0,0.0,100,0.00,,,0.62,,2013-05-05 08:02:00,
2013-05-05 03:11:00,44.0,44.0,29.94,WNW,288,0.0,0.0,100,0.00,,,0.62,,2013-05-05 08:11:00,
2013-05-05 03:21:00,44.0,44.0,29.94,WNW,288,0.0,0.0,100,0.00,,,0.62,,2013-05-05 08:21:00,
2013-05-05 03:31:00,44.0,44.0,29.94,WNW,288,0.0,0.0,100,0.00,,,0.52,,2013-05-05 08:31:00,
2013-05-05 03:42:00,44.0,44.0,29.94,WNW,288,0.0,0.0,100,0.00,,,0.52,,2013-05-05 08:42:00,
2013-05-05 03:53:00,43.0,43.0,29.93,WNW,288,0.0,0.0,100,0.00,,,0.52,,2013-05-05 08:53:00,
2013-05-05 04:01:00,43.0,43.0,29.93,WNW,288,0.0,0.0,100,0.00,,,0.52,,2013-05-05 09:01:00,
2013-05-05 04:11:00,43.0,43.0,29.93,WNW,288,0.0,0.0,100,0.00,,,0.52,,2013-05-05 09:11:00,
2013-05-05 04:21:00,42.0,42.0,29.93,WNW,288,0.0,0.0,100,0.00,,,0.52,,2013-05-05 09:21:00,
2013-05-05 04:32:00,42.0,42.0,29.93,WNW,288,0.0,0.0,100,0.00,,,0.38,,2013-05-05 09:32:00,
2013-05-05 04:42:00,42.0,42.0,29.93,WNW,288,0.0,0.0,100,0.00,,,0.38,,2013-05-05 09:42:00,
2013-05-05 04:52:00,41.0,41.0,29.93,WNW,288,0.0,0.0,100,0.00,,,0.38,,2013-05-05 09:52:00,
2013-05-05 05:02:00,42.0,42.0,29.93,WNW,288,0.0,0.0,100,0.00,,,0.38,,2013-05-05 10:02:00,
2013-05-05 05:12:00,42.0,42.0,29.93,WNW,288,0.0,0.0,100,0.00,,,0.38,,2013-05-05 10:12:00,
2013-05-05 05:22:00,42.0,42.0,29.93,WNW,288,0.0,0.0,100,0.00,,,0.38,,2013-05-05 10:22:00,
2013-05-05 05:32:00,42.0,42.0,29.93,WNW,288,0.0,0.0,100,0.00,,,0.28,,2013-05-05 10:32:00,
2013-05-05 05:42:00,42.0,42.0,29.93,WNW,288,0.0,0.0,100,0.00,,,0.28,,2013-05-05 10:42:00,
2013-05-05 05:53:00,42.0,42.0,29.93,WNW,288,0.0,0.0,100,0.00,,,0.28,,2013-05-05 10:53:00,
2013-05-05 06:01:00,43.0,43.0,29.93,WNW,288,0.0,0.0,100,0.00,,,0.28,,2013-05-05 11:01:00,
2013-05-05 06:12:00,43.0,43.0,29.93,WNW,288,0.0,0.0,100,0.00,,,0.28,,2013-05-05 11:12:00,
2013-05-05 06:21:00,43.0,43.0,29.93,WNW,288,0.0,2.0,100,0.00,,,0.28,,2013-05-05 11:21:00,
2013-05-05 06:32:00,43.0,43.0,29.92,WNW,288,0.0,0.0,100,0.00,,,0.08,,2013-05-05 11:32:00,
2013-05-05 06:42:00,43.0,43.0,29.92,WNW,288,0.0,0.0,100,0.00,,,0.08,,2013-05-05 11:42:00,
2013-05-05 06:52:00,43.0,43.0,29.93,WNW,288,0.0,0.0,100,0.00,,,0.08,,2013-05-05 11:52:00,
2013-05-05 07:02:00,42.0,42.0,29.93,WNW,288,0.0,0.0,100,0.00,,,0.08,,2013-05-05 12:02:00,
2013-05-05 07:11:00,42.0,42.0,29.93,WNW,288,0.0,0.0,100,0.00,,,0.08,,2013-05-05 12:11:00,
2013-05-05 07:21:00,42.0,42.0,29.92,WNW,288,0.0,0.0,100,0.00,,,0.08,,2013-05-05 12:21:00,
2013-05-05 07:32:00,44.0,44.0,29.92,WNW,288,1.0,2.0,100,0.00,,,0.01,,2013-05-05 12:32:00,
2013-05-05 07:42:00,44.0,44.0,29.92,WNW,288,1.0,2.0,100,0.00,,,0.01,,2013-05-05 12:42:00,
2013-05-05 07:52:00,45.0,45.0,29.91,West,280,1.0,5.0,100,0.00,,,0.01,,2013-05-05 12:52:00,
2013-05-05 08:01:00,46.0,46.0,29.92,WNW,287,2.0,11.0,100,0.00,,,0.01,,2013-05-05 13:01:00,
2013-05-05 08:11:00,46.0,46.0,29.92,WNW,287,2.0,11.0,100,0.00,,,0.01,,2013-05-05 13:11:00,
2013-05-05 08:21:00,46.0,46.0,29.92,SW,226,2.0,5.0,100,0.00,,,0.01,,2013-05-05 13:21:00,
2013-05-05 08:32:00,47.0,47.0,29.92,WNW,287,2.0,6.0,100,0.00,,,0.00,,2013-05-05 13:32:00,
2013-05-05 08:42:00,47.0,47.0,29.92,WNW,287,2.0,6.0,100,0.00,,,0.00,,2013-05-05 13:42:00,
2013-05-05 08:52:00,48.0,48.0,29.91,West,268,4.0,6.0,100,0.00,,,0.00,,2013-05-05 13:52:00,
2013-05-05 09:02:00,49.0,49.0,29.91,West,261,2.0,5.0,99,0.00,,,0.00,,2013-05-05 14:02:00,
2013-05-05 09:11:00,49.0,49.0,29.91,West,261,2.0,5.0,99,0.00,,,0.00,,2013-05-05 14:11:00,
2013-05-05 09:21:00,49.0,48.0,29.92,WSW,256,2.0,5.0,98,0.00,,,0.00,,2013-05-05 14:21:00,
2013-05-05 09:31:00,49.0,48.0,29.92,WNW,282,1.0,7.0,97,0.00,,,0.00,,2013-05-05 14:31:00,
2013-05-05 09:42:00,49.0,48.0,29.92,WNW,282,1.0,7.0,97,0.00,,,0.00,,2013-05-05 14:42:00,
2013-05-05 09:52:00,50.0,49.0,29.91,West,267,1.0,3.0,96,0.00,,,0.00,,2013-05-05 14:52:00,
2013-05-05 10:02:00,50.0,48.0,29.92,West,267,2.0,4.0,94,0.00,,,0.00,,2013-05-05 15:02:00,
2013-05-05 10:11:00,50.0,48.0,29.92,West,267,2.0,4.0,94,0.00,,,0.00,,2013-05-05 15:11:00,
2013-05-05 10:21:00,50.0,48.0,29.93,West,277,2.0,5.0,94,0.00,,,0.00,,2013-05-05 15:21:00,
2013-05-05 10:33:00,50.0,48.0,29.93,West,277,0.0,3.0,94,0.00,,,0.00,,2013-05-05 15:33:00,
2013-05-05 10:43:00,50.0,48.0,29.93,West,277,0.0,3.0,94,0.00,,,0.00,,2013-05-05 15:43:00,
2013-05-05 10:53:00,51.0,49.0,29.93,WNW,288,1.0,3.0,92,0.00,,,0.00,,2013-05-05 15:53:00,
2013-05-05 11:03:00,51.0,48.0,29.93,WSW,253,3.0,5.0,91,0.00,,,0.00,,2013-05-05 16:03:00,
2013-05-05 11:12:00,51.0,48.0,29.93,WSW,253,3.0,5.0,91,0.00,,,0.00,,2013-05-05 16:12:00,
2013-05-05 11:23:00,53.0,50.0,29.92,West,278,2.0,3.0,90,0.00,,,0.00,,2013-05-05 16:23:00,
2013-05-05 11:32:00,54.0,50.0,29.92,SSW,203,2.0,3.0,85,0.00,,,0.00,,2013-05-05 16:32:00,
2013-05-05 11:42:00,54.0,50.0,29.92,SSW,203,2.0,3.0,85,0.00,,,0.00,,2013-05-05 16:42:00,
2013-05-05 11:53:00,55.0,49.0,29.92,West,267,2.0,5.0,81,0.00,,,0.00,,2013-05-05 16:53:00,
2013-05-05 12:02:00,56.0,49.0,29.91,WSW,257,2.0,6.0,78,0.00,,,0.00,,2013-05-05 17:02:00,
2013-05-05 12:12:00,56.0,49.0,29.91,WSW,257,2.0,6.0,78,0.00,,,0.00,,2013-05-05 17:12:00,
2013-05-05 12:23:00,55.0,48.0,29.91,WSW,246,3.0,6.0,77,0.00,,,0.00,,2013-05-05 17:23:00,
2013-05-05 12:32:00,55.0,48.0,29.91,WNW,289,2.0,7.0,77,0.00,,,0.00,,2013-05-05 17:32:00,
2013-05-05 12:42:00,55.0,48.0,29.91,WNW,289,2.0,7.0,77,0.00,,,0.00,,2013-05-05 17:42:00,
2013-05-05 12:52:00,56.0,49.0,29.91,WNW,287,0.0,3.0,77,0.00,,,0.00,,2013-05-05 17:52:00,
2013-05-05 13:01:00,57.0,48.0,29.90,WNW,289,1.0,2.0,73,0.00,,,0.00,,2013-05-05 18:01:00,
2013-05-05 13:12:00,57.0,48.0,29.90,WNW,289,1.0,2.0,73,0.00,,,0.00,,2013-05-05 18:12:00,
2013-05-05 13:21:00,58.0,49.0,29.90,WSW,243,3.0,6.0,73,0.00,,,0.00,,2013-05-05 18:21:00,
2013-05-05 13:32:00,56.0,49.0,29.90,WSW,251,2.0,5.0,76,0.00,,,0.00,,2013-05-05 18:32:00,
2013-05-05 13:42:00,56.0,49.0,29.90,WSW,251,2.0,5.0,76,0.00,,,0.00,,2013-05-05 18:42:00,
2013-05-05 13:52:00,57.0,49.0,29.90,West,277,1.0,3.0,75,0.00,,,0.00,,2013-05-05 18:52:00,
2013-05-05 14:01:00,57.0,50.0,29.90,West,281,1.0,3.0,77,0.00,,,0.00,,2013-05-05 19:01:00,
2013-05-05 14:11:00,57.0,50.0,29.90,West,281,1.0,3.0,77,0.00,,,0.00,,2013-05-05 19:11:00,
2013-05-05 14:21:00,58.0,50.0,29.90,WNW,298,3.0,6.0,74,0.00,,,0.00,,2013-05-05 19:21:00,
2013-05-05 14:32:00,58.0,49.0,29.89,West,261,2.0,6.0,71,0.00,,,0.00,,2013-05-05 19:32:00,
2013-05-05 14:42:00,58.0,49.0,29.89,West,261,2.0,6.0,71,0.00,,,0.00,,2013-05-05 19:42:00,
2013-05-05 14:52:00,60.0,50.0,29.89,West,267,2.0,6.0,69,0.00,,,0.00,,2013-05-05 19:52:00,
2013-05-05 15:01:00,61.0,50.0,29.89,West,277,3.0,6.0,68,0.00,,,0.00,,2013-05-05 20:01:00,
2013-05-05 15:11:00,61.0,50.0,29.89,West,277,3.0,6.0,68,0.00,,,0.00,,2013-05-05 20:11:00,
2013-05-05 15:21:00,61.0,49.0,29.88,West,267,4.0,7.0,65,0.00,,,0.00,,2013-05-05 20:21:00,
2013-05-05 15:31:00,60.0,49.0,29.88,West,274,2.0,6.0,67,0.00,,,0.00,,2013-05-05 20:31:00,
2013-05-05 15:41:00,60.0,49.0,29.88,West,274,2.0,6.0,67,0.00,,,0.00,,2013-05-05 20:41:00,
2013-05-05 15:52:00,61.0,49.0,29.87,West,280,5.0,11.0,65,0.00,,,0.00,,2013-05-05 20:52:00,
2013-05-05 16:02:00,61.0,49.0,29.87,WSW,250,2.0,7.0,65,0.00,,,0.00,,2013-05-05 21:02:00,
2013-05-05 16:11:00,61.0,49.0,29.87,WSW,250,2.0,7.0,65,0.00,,,0.00,,2013-05-05 21:11:00,
2013-05-05 16:21:00,61.0,49.0,29.87,West,270,2.0,8.0,65,0.00,,,0.00,,2013-05-05 21:21:00,
2013-05-05 16:33:00,61.0,50.0,29.86,West,260,3.0,8.0,67,0.00,,,0.00,,2013-05-05 21:33:00,
2013-05-05 16:42:00,61.0,50.0,29.86,West,260,3.0,8.0,67,0.00,,,0.00,,2013-05-05 21:42:00,
2013-05-05 16:53:00,61.0,50.0,29.87,WNW,289,4.0,7.0,66,0.00,,,0.00,,2013-05-05 21:53:00,
2013-05-05 17:02:00,61.0,50.0,29.87,WSW,257,4.0,7.0,67,0.00,,,0.00,,2013-05-05 22:02:00,
2013-05-05 17:12:00,61.0,50.0,29.87,WSW,257,4.0,7.0,67,0.00,,,0.00,,2013-05-05 22:12:00,
2013-05-05 17:22:00,61.0,51.0,29.87,West,267,1.0,7.0,69,0.00,,,0.00,,2013-05-05 22:22:00,
2013-05-05 17:33:00,60.0,49.0,29.87,West,263,2.0,6.0,67,0.00,,,0.00,,2013-05-05 22:33:00,
2013-05-05 17:42:00,60.0,49.0,29.87,West,263,2.0,6.0,67,0.00,,,0.00,,2013-05-05 22:42:00,
2013-05-05 17:52:00,59.0,50.0,29.87,WNW,285,1.0,5.0,73,0.00,,,0.00,,2013-05-05 22:52:00,
2013-05-05 18:02:00,59.0,50.0,29.87,West,278,2.0,3.0,73,0.00,,,0.00,,2013-05-05 23:02:00,
2013-05-05 18:11:00,59.0,50.0,29.87,West,278,2.0,3.0,73,0.00,,,0.00,,2013-05-05 23:11:00,
2013-05-05 18:21:00,59.0,50.0,29.87,West,270,2.0,7.0,73,0.00,,,0.00,,2013-05-05 23:21:00,
2013-05-05 18:32:00,59.0,50.0,29.87,WSW,250,1.0,5.0,73,0.00,,,0.00,,2013-05-05 23:32:00,
2013-05-05 18:42:00,59.0,50.0,29.87,WSW,250,1.0,5.0,73,0.00,,,0.00,,2013-05-05 23:42:00,
2013-05-05 18:52:00,59.0,51.0,29.87,West,277,1.0,3.0,74,0.00,,,0.00,,2013-05-05 23:52:00,
2013-05-05 19:01:00,58.0,50.0,29.87,WSW,258,3.0,4.0,75,0.00,,,0.00,,2013-05-06 00:01:00,
2013-05-05 19:11:00,58.0,50.0,29.87,WSW,258,3.0,4.0,75,0.00,,,0.00,,2013-05-06 00:11:00,
2013-05-05 19:21:00,58.0,50.0,29.87,WSW,251,2.0,5.0,76,0.00,,,0.00,,2013-05-06 00:21:00,
2013-05-05 19:31:00,58.0,51.0,29.87,WNW,301,3.0,8.0,78,0.00,,,0.00,,2013-05-06 00:31:00,
2013-05-05 19:41:00,58.0,51.0,29.87,WNW,301,3.0,8.0,78,0.00,,,0.00,,2013-05-06 00:41:00,
2013-05-05 19:52:00,57.0,51.0,29.87,West,274,1.0,5.0,80,0.00,,,0.00,,2013-05-06 00:52:00,
2013-05-05 20:01:00,57.0,51.0,29.87,WNW,285,0.0,4.0,81,0.00,,,0.00,,2013-05-06 01:01:00,
2013-05-05 20:11:00,57.0,51.0,29.87,WNW,285,0.0,4.0,81,0.00,,,0.00,,2013-05-06 01:11:00,
2013-05-05 20:21:00,56.0,51.0,29.88,WNW,285,0.0,2.0,83,0.00,,,0.00,,2013-05-06 01:21:00,
2013-05-05 20:31:00,56.0,51.0,29.88,WSW,250,0.0,5.0,83,0.00,,,0.00,,2013-05-06 01:31:00,
2013-05-05 20:41:00,56.0,51.0,29.88,WSW,250,0.0,5.0,83,0.00,,,0.00,,2013-05-06 01:41:00,
2013-05-05 20:52:00,56.0,51.0,29.89,WSW,250,2.0,3.0,84,0.00,,,0.00,,2013-05-06 01:52:00,
2013-05-05 21:01:00,56.0,51.0,29.89,WSW,250,1.0,3.0,84,0.00,,,0.00,,2013-05-06 02:01:00,
2013-05-05 21:12:00,56.0,51.0,29.89,WSW,250,1.0,3.0,84,0.00,,,0.00,,2013-05-06 02:12:00,
2013-05-05 21:21:00,56.0,52.0,29.90,WSW,250,0.0,2.0,85,0.00,,,0.00,,2013-05-06 02:21:00,
2013-05-05 21:32:00,55.0,51.0,29.89,WSW,237,0.0,5.0,86,0.00,,,0.00,,2013-05-06 02:32:00,
2013-05-05 21:42:00,55.0,51.0,29.89,WSW,237,0.0,5.0,86,0.00,,,0.00,,2013-05-06 02:42:00,
2013-05-05 21:52:00,55.0,51.0,29.89,WSW,243,0.0,2.0,87,0.00,,,0.00,,2013-05-06 02:52:00,
2013-05-05 22:02:00,55.0,51.0,29.90,WSW,243,1.0,2.0,87,0.00,,,0.00,,2013-05-06 03:02:00,
2013-05-05 22:11:00,55.0,51.0,29.90,WSW,243,1.0,2.0,87,0.00,,,0.00,,2013-05-06 03:11:00,
2013-05-05 22:22:00,55.0,52.0,29.89,WSW,246,0.0,1.0,88,0.00,,,0.00,,2013-05-06 03:22:00,
2013-05-05 22:33:00,55.0,52.0,29.89,WSW,246,0.0,2.0,89,0.00,,,0.00,,2013-05-06 03:33:00,
2013-05-05 22:42:00,55.0,52.0,29.89,WSW,246,0.0,2.0,89,0.00,,,0.00,,2013-05-06 03:42:00,
2013-05-05 22:52:00,55.0,52.0,29.88,WSW,246,1.0,3.0,89,0.00,,,0.00,,2013-05-06 03:52:00,
2013-05-05 23:02:00,55.0,52.0,29.88,WSW,246,1.0,3.0,90,0.00,,,0.00,,2013-05-06 04:02:00,
2013-05-05 23:12:00,55.0,52.0,29.88,WSW,246,1.0,3.0,90,0.00,,,0.00,,2013-05-06 04:12:00,
2013-05-05 23:23:00,55.0,52.0,29.87,WSW,251,2.0,5.0,90,0.00,,,0.00,,2013-05-06 04:23:00,
2013-05-05 23:32:00,55.0,52.0,29.86,WSW,250,2.0,3.0,90,0.00,,,0.00,,2013-05-06 04:32:00,
2013-05-05 23:42:00,55.0,52.0,29.86,WSW,250,2.0,3.0,90,0.00,,,0.00,,2013-05-06 04:42:00,
2013-05-05 23:53:00,55.0,52.0,29.86,WSW,243,0.0,3.0,91,0.00,,,0.00,,2013-05-06 04:53:00,